EW9994 Weather Reports


time (UTC)temp
C
wind
direction
speed
KPH
gust
KPH
rain 1hr
cm
rain 24hr
cm
rain mn
cm
humidity
%
barometer
mb
20260508121406 20 6 9.7 16.1 0.00 0.00 0.00 59 1014.4
20260508120407 20 53 8.0 20.9 0.00 0.00 0.00 58 1014.3
20260508114406 21 13 9.7 20.9 0.00 0.00 0.00 57 1014.2
20260508113906 21 350 11.3 20.9 0.00 0.00 0.00 57 1014.2
20260508113406 21 45 14.5 32.2 0.00 0.00 0.00 57 1014.2
20260508111906 21 2 4.8 19.3 0.00 0.00 0.00 59 1014.1
20260508111407 21 9 14.5 27.4 0.00 0.00 0.00 57 1014.1
20260508110906 21 9 8.0 19.3 0.00 0.00 0.00 57 1014.2
20260508104906 21 57 12.9 27.4 0.00 0.00 0.00 57 1014.2
20260508101407 21 41 16.1 32.2 0.00 0.00 0.00 54 1014.1
20260508094906 21 45 16.1 29.0 0.00 0.00 0.00 54 1013.8
20260508094409 21 31 12.9 27.4 0.00 0.00 0.00 55 1013.8
20260508090906 20 44 16.1 32.2 0.00 0.00 0.00 56 1013.6
20260508090406 20 54 16.1 32.2 0.00 0.00 0.00 56 1013.6
20260508084906 20 47 16.1 32.2 0.00 0.00 0.00 56 1013.5
20260508084406 20 56 20.9 33.8 0.00 0.00 0.00 56 1013.4
20260508083406 20 42 25.7 37.0 0.00 0.00 0.00 57 1013.3
20260508081908 20 48 20.9 33.8 0.00 0.00 0.00 55 1013.3
20260508081406 20 57 27.4 38.6 0.00 0.00 0.00 55 1013.4
20260508080406 20 46 24.1 40.2 0.00 0.00 0.00 56 1013.3
20260508074406 20 43 24.1 37.0 0.00 0.00 0.00 60 1013.2
20260508073906 19 57 19.3 37.0 0.00 0.00 0.00 61 1013.2
20260508070906 18 55 22.5 33.8 0.00 0.00 0.00 63 1013.2
20260508070406 18 43 11.3 32.2 0.00 0.00 0.00 64 1013.3
20260508064906 18 54 14.5 32.2 0.00 0.00 0.00 64 1013.3
20260508064406 18 31 14.5 32.2 0.00 0.00 0.00 64 1013.3
20260508063906 18 43 19.3 33.8 0.00 0.00 0.00 64 1013.3
20260508061906 17 33 11.3 20.9 0.00 0.00 0.00 65 1013.3
20260508060906 17 63 12.9 25.7 0.00 0.00 0.00 65 1013.1
20260508060406 17 61 14.5 35.4 0.00 0.00 0.00 65 1013.1
20260508054408 17 78 12.9 27.4 0.00 0.00 0.00 67 1013.0
20260508053906 17 64 14.5 27.4 0.00 0.00 0.00 67 1012.9
20260508051906 17 46 11.3 27.4 0.00 0.00 0.00 67 1012.7
20260508050907 16 49 14.5 27.4 0.00 0.00 0.00 67 1012.6
20260508044906 16 60 8.0 19.3 0.00 0.00 0.00 67 1012.6
20260508044406 16 64 9.7 19.3 0.00 0.00 0.00 67 1012.6
20260508043406 16 35 4.8 19.3 0.00 0.00 0.00 66 1012.6
20260508033406 16 63 9.7 14.5 0.00 0.00 0.00 65 1012.5
20260508031405 16 51 4.8 14.5 0.00 0.00 0.00 65 1012.6
20260508030906 16 51 6.4 9.7 0.00 0.00 0.00 64 1012.6
20260508030405 15 51 4.8 14.5 0.00 0.00 0.00 65 1012.6
20260508024906 15 59 8.0 11.3 0.00 0.00 0.00 65 1012.5
20260508024405 15 90 8.0 11.3 0.00 0.00 0.00 66 1012.5
20260508023906 15 50 9.7 16.1 0.00 0.00 0.00 66 1012.6
20260508023406 15 61 4.8 20.9 0.00 0.00 0.00 65 1012.6
20260508021905 15 29 11.3 19.3 0.00 0.00 0.00 68 1012.7
20260508014405 11 53 9.7 14.5 0.00 0.00 0.00 79 1012.9
20260508013406 11 53 3.2 11.3 0.00 0.00 0.00 79 1013.1
20260508004905 11 30 8.0 9.7 0.00 0.00 0.00 80 1013.6
20260508003906 11 29 4.8 9.7 0.00 0.00 0.00 79 1013.7
20260508003406 11 29 9.7 14.5 0.00 0.00 0.00 79 1013.8
20260508001905 11 57 6.4 9.7 0.00 0.00 0.00 77 1014.0
20260508000905 11 58 8.0 11.3 0.00 0.00 0.00 76 1013.9
20260508000406 11 61 9.7 12.9 0.00 0.00 0.00 74 1013.9
20260507233405 11 44 8.0 12.9 0.00 0.00 0.00 72 1014.1
20260507231905 11 69 3.2 4.8 0.00 0.00 0.00 72 1014.2
20260507230905 11 25 4.8 8.0 0.00 0.00 0.00 71 1014.2
20260507230405 12 20 6.4 12.9 0.00 0.00 0.00 70 1014.2
20260507224405 11 32 4.8 11.3 0.00 0.00 0.00 71 1014.3
20260507223905 11 32 8.0 11.3 0.00 0.00 0.00 71 1014.3
20260507223405 12 32 3.2 12.9 0.00 0.00 0.00 71 1014.3
20260507221405 11 34 4.8 8.0 0.00 0.00 0.00 71 1014.1
20260507220906 11 35 4.8 9.7 0.00 0.00 0.00 72 1014.2
20260507220405 11 34 4.8 11.3 0.00 0.00 0.00 72 1014.2
20260507214907 12 36 8.0 9.7 0.00 0.00 0.00 71 1014.1
20260507214410 12 28 6.4 9.7 0.00 0.00 0.00 71 1014.1
20260507213905 12 23 4.8 9.7 0.00 0.00 0.00 71 1014.1
20260507213405 12 24 3.2 14.5 0.00 0.00 0.00 70 1014.1
20260507211908 12 28 9.7 16.1 0.00 0.00 0.00 68 1014.1
20260507204405 12 36 4.8 8.0 0.00 0.00 0.00 71 1014.0
20260507203905 12 36 3.2 8.0 0.00 0.00 0.00 71 1014.0
20260507203407 12 36 3.2 8.0 0.00 0.00 0.00 70 1014.0
20260507201405 13 36 4.8 8.0 0.00 0.00 0.00 69 1014.0
20260507200405 13 36 4.8 12.9 0.00 0.00 0.00 69 1014.1
20260507194905 13 37 4.8 8.0 0.00 0.00 0.00 69 1014.2
20260507194405 13 37 3.2 9.7 0.00 0.00 0.00 69 1014.1
20260507193907 13 36 8.0 11.3 0.00 0.00 0.00 68 1014.1
20260507193406 13 36 4.8 12.9 0.00 0.00 0.00 68 1014.1
20260507190906 14 25 3.2 11.3 0.00 0.00 0.00 71 1014.0
20260507190406 14 26 8.0 14.5 0.00 0.00 0.00 71 1013.9
20260507184406 15 27 8.0 12.9 0.00 0.00 0.00 75 1013.6
20260507181906 15 35 8.0 12.9 0.00 0.00 0.00 74 1013.7
20260507181407 15 21 8.0 16.1 0.00 0.00 0.00 74 1013.7
20260507180406 16 43 9.7 16.1 0.00 0.00 0.00 72 1013.6
20260507173906 18 46 8.0 12.9 0.00 0.00 0.00 62 1013.3
20260507171907 20 264 0.0 4.8 0.00 0.00 0.00 55 1013.1
20260507171407 20 265 3.2 4.8 0.00 0.00 0.00 54 1013.2
20260507170907 20 260 1.6 4.8 0.00 0.00 0.00 55 1013.2
20260507170406 20 252 6.4 14.5 0.00 0.00 0.00 54 1013.3
20260507163406 20 244 8.0 12.9 0.00 0.00 0.00 56 1013.3
20260507154907 20 204 8.0 16.1 0.00 0.00 0.00 55 1013.2
20260507154409 21 249 12.9 19.3 0.00 0.00 0.00 52 1013.1
20260507153907 21 229 8.0 19.3 0.00 0.00 0.00 54 1013.0
20260507151907 21 253 8.0 16.1 0.00 0.00 0.00 52 1013.2
20260507150406 21 191 11.3 19.3 0.00 0.03 0.00 52 1013.2
20260507144907 21 238 9.7 14.5 0.00 0.03 0.00 53 1013.4
20260507141907 20 230 9.7 16.1 0.00 0.05 0.00 55 1013.6
20260507140911 20 211 8.0 24.1 0.00 0.05 0.00 56 1013.6
20260507140407 20 251 16.1 22.5 0.00 0.05 0.00 54 1013.5
20260507134906 20 200 9.7 19.3 0.00 0.05 0.00 54 1013.7
20260507133906 21 243 9.7 20.9 0.00 0.08 0.00 54 1013.7
20260507131906 20 168 14.5 22.5 0.00 0.08 0.00 56 1013.9
20260507124907 20 238 11.3 19.3 0.00 0.15 0.00 58 1013.9
20260507123906 20 239 9.7 20.9 0.00 0.15 0.00 60 1013.9